Regional Weather Roundup
Issued by NWS

Home | Current Version | Previous Version | Text Only | Print | Product List | Glossary Off
Versions: 1 2 3 4 5 6 7 8 9 10 11 12 13 14 15 16 17 18 19 20 21 22 23 24 25 26 27 28 29 30 31 32 33 34 35 36 37 38 39 40 41 42 43 44 45 46 47 48 49 50

000
ASUS45 KABQ 221001
RWRNM
NEW MEXICO REGIONAL WEATHER ROUNDUP
NATIONAL WEATHER SERVICE ALBUQUERQUE NM
400 AM MDT SAT JUL 22 2017

NOTE: "FAIR" MEANS FEW OR NO CLOUDS BELOW 12,000 FEET AGL WITH NO
       SIGNIFICANT WEATHER OR OBSTRUCTIONS TO VISION.

      THIS PRODUCT IS RELEASED AS TWO VERSIONS.  ONE VERSION NEAR
      THE TOP OF THE HOUR CONTAINING PRELIMINARY DATA FROM ALBUQUERQUE
      AND OTHER STATIONS.  A FINAL VERSION WITH ADDITIONAL DATA IS
      ISSUED ABOUT 10 MINUTES AFTER THE HOUR.

NMZ501-503-504-510>518-221100-
NORTHWEST PLATEAU/NORTHCENTRAL MOUNTAINS

CITY           SKY/WX    TMP DP  RH WIND       PRES   REMARKS
FARMINGTON     FAIR      66  59  78 SW5       30.15S
LOS ALAMOS     FAIR      67  50  55 SW6       30.26F
SANTA FE       FAIR      66  55  67 E5        30.21R
TAOS           FAIR      55  43  62 N6        30.29F
ANGEL FIRE     FAIR      46  43  88 CALM      30.39S

$$
NMZ402-403-502-505>509-221100-
WESTCENTRAL MOUNTAINS/SOUTHWEST MOUNTAINS

CITY           SKY/WX    TMP DP  RH WIND       PRES   REMARKS
GALLUP         MOCLDY    62  57  83 CALM      30.23F
GRANTS         FAIR      55  50  82 CALM      30.24F
SILVER CITY    CLOUDY    66  65  95 NW3       30.16S

$$
NMZ407-409-411-412-221100-
SOUTHERN DESERTS

CITY           SKY/WX    TMP DP  RH WIND       PRES   REMARKS
DEMING         FAIR      69  67  93 CALM      30.09S
LAS CRUCES     MOCLDY    69  67  93 CALM      30.11S
HOLLOMAN AFB   FAIR      70  59  69 S5        30.09F
ALAMOGORDO     FAIR      70  59  68 S3        30.09F
T OR C         FAIR      69  59  70 NW6       30.11S

$$
NMZ519>523-221100-
CENTRAL VALLEYS/CENTRAL HIGHLANDS

CITY           SKY/WX    TMP DP  RH WIND       PRES   REMARKS
ALBUQUERQUE    FAIR      69  57  65 SE7       30.15F
DOUBLE EAGLE   FAIR      62  52  68 SW7       30.18F
CLINES CORNERS NOT AVBL
BELEN          NOT AVBL
SOCORRO        NOT AVBL

$$
NMZ524>526-539-540-221100-
SOUTHCENTRAL MOUNTAINS

CITY           SKY/WX    TMP DP  RH WIND       PRES   REMARKS
RUIDOSO        FAIR      57  52  82 W8        30.27S

$$
NMZ527>531-221100-
NORTHEAST HIGHLANDS/NORTHEAST PLAINS

CITY           SKY/WX    TMP DP  RH WIND       PRES   REMARKS
LAS VEGAS      FAIR      59  48  67 NE10      30.24R
RATON          FAIR      67  50  54 N12       30.20S
CLAYTON        FAIR      67  56  67 N13       30.11R

$$
NMZ532>537-221100-
EASTCENTRAL PLAINS

CITY           SKY/WX    TMP DP  RH WIND       PRES   REMARKS
SANTA ROSA     FAIR      70  53  54 S6        30.08F
TUCUMCARI      FAIR      74  58  57 SW12      30.02S
CANNON AFB     FAIR      71  60  67 NW3       30.08F
CLOVIS AIRPORT FAIR      69  59  70 W8        30.08S

$$
NMZ028-029-538-221100-
SOUTHEAST PLAINS

CITY           SKY/WX    TMP DP  RH WIND       PRES   REMARKS
ROSWELL        FAIR      71  54  54 S8        30.02F
ARTESIA        FAIR      73  61  64 CALM      30.03F
CARLSBAD       FAIR      75  65  70 CALM      30.00S
HOBBS          FAIR      70  63  78 CALM      30.06S


$$



USA.gov is the U.S. government's official web portal to all federal, state and local government web resources and services.